TimeCDT,TemperatureF,Dew PointF,Humidity,Sea Level PressureIn,VisibilityMPH,Wind Direction,Wind SpeedMPH,Gust SpeedMPH,PrecipitationIn,Events,Conditions,WindDirDegrees,DateUTC
12:15 AM,32.5,29.1,87,30.21,10.0,Calm,Calm,-,N/A,,Clear,0,2012-09-27 05:15:00
12:35 AM,31.3,28.9,91,30.21,10.0,Calm,Calm,-,N/A,,Clear,0,2012-09-27 05:35:00
12:55 AM,30.7,26.4,84,30.21,10.0,Calm,Calm,-,N/A,,Clear,0,2012-09-27 05:55:00
1:15 AM,30.2,27.5,90,30.21,10.0,Calm,Calm,-,N/A,,Clear,0,2012-09-27 06:15:00
1:35 AM,30.2,26.4,86,30.21,10.0,Calm,Calm,-,N/A,,Clear,0,2012-09-27 06:35:00
1:55 AM,29.7,25.2,83,30.21,10.0,Calm,Calm,-,N/A,,Clear,0,2012-09-27 06:55:00
2:15 AM,29.1,27.0,92,30.21,10.0,Calm,Calm,-,N/A,,Clear,0,2012-09-27 07:15:00
2:35 AM,29.5,26.2,88,30.21,10.0,Calm,Calm,-,N/A,,Clear,0,2012-09-27 07:35:00
2:55 AM,28.6,26.2,91,30.21,10.0,Calm,Calm,-,N/A,,Clear,0,2012-09-27 07:55:00
3:15 AM,27.9,25.7,92,30.21,4.0,Calm,Calm,-,N/A,,Clear,0,2012-09-27 08:15:00
3:35 AM,27.7,26.1,94,30.21,10.0,Calm,Calm,-,N/A,,Clear,0,2012-09-27 08:35:00
3:55 AM,27.3,25.0,91,30.22,10.0,Calm,Calm,-,N/A,,Clear,0,2012-09-27 08:55:00
4:15 AM,27.7,25.7,92,30.22,10.0,Calm,Calm,-,N/A,,Clear,0,2012-09-27 09:15:00
4:35 AM,28.4,24.8,86,30.21,10.0,Calm,Calm,-,N/A,,Clear,0,2012-09-27 09:35:00
4:55 AM,28.2,24.6,86,30.22,10.0,Calm,Calm,-,N/A,,Clear,0,2012-09-27 09:55:00
5:15 AM,27.1,23.4,86,30.22,10.0,Calm,Calm,-,N/A,,Clear,0,2012-09-27 10:15:00
5:35 AM,26.6,23.2,87,30.23,10.0,Calm,Calm,-,N/A,,Clear,0,2012-09-27 10:35:00
5:55 AM,27.5,23.2,84,30.23,10.0,Calm,Calm,-,N/A,,Clear,0,2012-09-27 10:55:00
6:15 AM,27.5,24.1,87,30.23,10.0,Calm,Calm,-,N/A,,Clear,0,2012-09-27 11:15:00
6:35 AM,27.7,25.5,92,30.24,10.0,Calm,Calm,-,N/A,,Clear,0,2012-09-27 11:35:00
6:55 AM,26.8,25.2,94,30.24,10.0,Calm,Calm,-,N/A,,Clear,0,2012-09-27 11:55:00
7:15 AM,27.7,25.3,91,30.24,10.0,Calm,Calm,-,N/A,,Clear,0,2012-09-27 12:15:00
7:35 AM,28.2,23.7,83,30.25,10.0,Calm,Calm,-,N/A,,Clear,0,2012-09-27 12:35:00
7:55 AM,29.1,24.3,82,30.24,10.0,Calm,Calm,-,N/A,,Clear,0,2012-09-27 12:55:00
8:15 AM,31.5,28.8,90,30.24,10.0,Calm,Calm,-,N/A,,Clear,0,2012-09-27 13:15:00
8:35 AM,35.4,32.4,89,30.24,10.0,Calm,Calm,-,N/A,,Clear,0,2012-09-27 13:35:00
8:55 AM,41.4,33.8,74,30.24,10.0,South,5.8,-,N/A,,Clear,190,2012-09-27 13:55:00
9:15 AM,44.1,33.8,67,30.25,10.0,SSW,4.6,-,N/A,,Clear,210,2012-09-27 14:15:00
9:35 AM,46.6,34.5,63,30.24,10.0,South,6.9,-,N/A,,Clear,190,2012-09-27 14:35:00
9:55 AM,50.0,34.5,55,30.24,10.0,SSW,6.9,-,N/A,,Clear,210,2012-09-27 14:55:00
10:15 AM,52.3,34.5,51,30.24,10.0,South,6.9,-,N/A,,Clear,190,2012-09-27 15:15:00
10:35 AM,55.0,34.3,46,30.24,10.0,South,9.2,-,N/A,,Clear,180,2012-09-27 15:35:00
10:55 AM,56.8,34.0,42,30.24,10.0,SW,5.8,-,N/A,,Clear,220,2012-09-27 15:55:00
11:15 AM,58.5,33.1,38,30.23,10.0,SSW,6.9,-,N/A,,Clear,210,2012-09-27 16:15:00
11:35 AM,59.4,32.9,37,30.22,10.0,SSW,9.2,-,N/A,,Clear,210,2012-09-27 16:35:00
11:55 AM,61.0,32.4,34,30.22,10.0,South,10.4,-,N/A,,Clear,190,2012-09-27 16:55:00
12:15 PM,61.7,32.0,33,30.21,10.0,South,9.2,-,N/A,,Clear,190,2012-09-27 17:15:00
12:35 PM,62.4,31.8,32,30.21,7.0,South,8.1,-,N/A,,Clear,190,2012-09-27 17:35:00
12:55 PM,63.1,31.5,30,30.21,10.0,SSW,9.2,-,N/A,,Clear,200,2012-09-27 17:55:00
1:15 PM,63.7,30.7,29,30.19,7.0,South,6.9,-,N/A,,Clear,190,2012-09-27 18:15:00
1:35 PM,64.8,30.7,28,30.19,7.0,SW,4.6,-,N/A,,Clear,220,2012-09-27 18:35:00
1:55 PM,65.1,31.1,28,30.18,7.0,South,5.8,-,N/A,,Clear,190,2012-09-27 18:55:00
2:15 PM,65.5,30.7,27,30.18,10.0,South,3.5,-,N/A,,Clear,190,2012-09-27 19:15:00
2:35 PM,65.8,30.6,27,30.17,10.0,SSE,4.6,-,N/A,,Clear,150,2012-09-27 19:35:00
2:55 PM,66.7,30.4,26,30.17,10.0,WSW,4.6,-,N/A,,Clear,240,2012-09-27 19:55:00
3:15 PM,67.1,30.2,25,30.16,10.0,West,3.5,-,N/A,,Clear,260,2012-09-27 20:15:00
3:35 PM,67.8,30.7,25,30.16,10.0,SE,5.8,-,N/A,,Clear,130,2012-09-27 20:35:00
3:55 PM,68.0,31.5,26,30.15,7.0,ESE,5.8,-,N/A,,Clear,120,2012-09-27 20:55:00
4:15 PM,68.4,31.3,25,30.14,7.0,SE,8.1,-,N/A,,Clear,130,2012-09-27 21:15:00
4:35 PM,68.7,30.7,24,30.15,10.0,SE,8.1,-,N/A,,Clear,130,2012-09-27 21:35:00
4:55 PM,69.1,30.6,24,30.15,10.0,SSE,6.9,-,N/A,,Clear,160,2012-09-27 21:55:00
5:35 PM,68.0,31.5,26,30.15,10.0,SSE,9.2,-,N/A,,Clear,160,2012-09-27 22:35:00
5:55 PM,67.5,31.6,26,30.15,10.0,South,9.2,-,N/A,,Clear,170,2012-09-27 22:55:00
6:15 PM,66.2,31.6,28,30.14,10.0,SSE,5.8,-,N/A,,Clear,160,2012-09-27 23:15:00
6:35 PM,64.4,32.0,30,30.14,10.0,SSE,4.6,-,N/A,,Clear,160,2012-09-27 23:35:00
6:55 PM,62.1,32.0,32,30.14,7.0,SSE,5.8,-,N/A,,Clear,160,2012-09-27 23:55:00
7:15 PM,60.1,32.0,35,30.14,10.0,SSE,4.6,-,N/A,,Clear,160,2012-09-28 00:15:00
7:35 PM,58.6,32.0,37,30.14,7.0,SSE,5.8,-,N/A,,Clear,160,2012-09-28 00:35:00
7:55 PM,55.9,32.0,40,30.14,10.0,SE,4.6,-,N/A,,Clear,130,2012-09-28 00:55:00
8:15 PM,53.6,32.0,44,30.14,10.0,SE,4.6,-,N/A,,Clear,130,2012-09-28 01:15:00
8:35 PM,52.9,33.8,48,30.14,10.0,SSE,5.8,-,N/A,,Clear,160,2012-09-28 01:35:00
8:55 PM,53.1,35.4,51,30.14,10.0,SE,4.6,-,N/A,,Clear,140,2012-09-28 01:55:00
9:15 PM,52.3,35.4,53,30.14,10.0,SSE,4.6,-,N/A,,Clear,150,2012-09-28 02:15:00
9:35 PM,51.1,35.4,55,30.15,10.0,Calm,Calm,-,N/A,,Clear,0,2012-09-28 02:35:00
9:55 PM,50.4,34.9,55,30.15,10.0,Calm,Calm,-,N/A,,Scattered Clouds,0,2012-09-28 02:55:00
10:15 PM,48.0,34.3,59,30.15,10.0,Calm,Calm,-,N/A,,Scattered Clouds,0,2012-09-28 03:15:00
10:35 PM,47.7,34.7,61,30.16,10.0,Calm,Calm,-,N/A,,Scattered Clouds,0,2012-09-28 03:35:00
10:55 PM,48.2,35.2,61,30.16,10.0,Calm,Calm,-,N/A,,Scattered Clouds,0,2012-09-28 03:55:00
11:15 PM,48.0,34.7,60,30.16,10.0,Calm,Calm,-,N/A,,Scattered Clouds,0,2012-09-28 04:15:00
11:35 PM,47.5,35.1,62,30.16,10.0,Calm,Calm,-,N/A,,Scattered Clouds,0,2012-09-28 04:35:00